Homestead AFB, FL

4:05 AM EDT on June 29, 2017 (GMT -0400)
Dade County-Homestead Regional

Weather History for KHST - March, 2014

Change the Weather History Date:

Friday, March 14, 2014

  Actual Average Record
Temperature  
Mean Temperature 65 °F -  
Max Temperature 74 °F 81 °F 90 °F (1954)
Min Temperature 56 °F 59 °F 37 °F (1932)
Growing Degree Days 15 (Base 50)    
Moisture  
Dew Point 55 °F    
Average Humidity 66    
Maximum Humidity 81    
Minimum Humidity 58    
Precipitation  
Precipitation 0.00 in - - ()
Sea Level Pressure  
Sea Level Pressure 30.19 in    
Wind  
Wind Speed 10 mph (NE)    
Max Wind Speed 18 mph    
Max Gust Speed 25 mph    
Visibility 10 miles    
Events      
Averages and records for this station are not official NWS values.
T = Trace of Precipitation, MM = Missing Value Source: NWS Daily Summary

Daily Weather History Graph

Daily Weather History Graph

Search for Another Location

Airport or City:

Trip Planner

Search our weather history database for the weather conditions in past years. The results will help you decide how hot, cold, wet, or windy it might be!

Date:

Astronomy

Mar. 14, 2014 Rise Set
Actual Time 7:31 AM EDT 7:29 PM EDT
Civil Twilight 7:08 AM EDT 7:52 PM EDT
Nautical Twilight 6:42 AM EDT 8:19 PM EDT
Astronomical Twilight 6:15 AM EDT 8:46 PM EDT
Moon 5:57 PM EDT (3/14) 6:02 AM EDT (3/14)
Length of Visible Light 12h 44m
Length of Day
11h 58m
Waxing Gibbous, 96% of the Moon is Illuminated
Mar 14
Waxing Gibbous
Mar 16
Full
Mar 23
Last Quarter
Mar 30
New
Apr 7
First Quarter

Hourly Weather History & Observations

Time (EDT) Temp. Dew Point Humidity Pressure Visibility Wind Dir Wind Speed Gust Speed Precip Events Conditions
12:58 AM 60.4 °F 50.2 °F 69% 30.17 in 10.0 mi North 8.1 mph - N/A   Clear
1:58 AM 60.4 °F 48.2 °F 64% 30.18 in 10.0 mi North 10.4 mph - N/A   Clear
2:58 AM 59.7 °F 48.2 °F 66% 30.17 in 10.0 mi North 8.1 mph - N/A   Mostly Cloudy
3:58 AM 59.7 °F 47.7 °F 64% 30.15 in 10.0 mi North 9.2 mph - N/A   Partly Cloudy
4:58 AM 58.1 °F 49.1 °F 72% 30.15 in 10.0 mi NNW 8.1 mph - N/A   Clear
5:58 AM 57.7 °F 50.0 °F 75% 30.16 in 10.0 mi North 5.8 mph - N/A   Scattered Clouds
6:58 AM 56.5 °F 50.2 °F 79% 30.18 in 10.0 mi NNW 4.6 mph - N/A   Clear
7:58 AM 56.7 °F 50.9 °F 81% 30.19 in 10.0 mi North 6.9 mph - N/A   Partly Cloudy
8:58 AM 60.6 °F 52.5 °F 75% 30.22 in 10.0 mi North 5.8 mph - N/A   Clear
9:58 AM 70.0 °F 56.8 °F 63% 30.23 in 10.0 mi ENE 15.0 mph 25.3 mph N/A   Partly Cloudy
10:58 AM 70.3 °F 57.0 °F 63% 30.25 in 10.0 mi ENE 17.3 mph 25.3 mph N/A   Scattered Clouds
11:58 AM 72.5 °F 56.8 °F 58% 30.25 in 10.0 mi ENE 17.3 mph 24.2 mph N/A   Clear
12:58 PM 72.5 °F 57.4 °F 59% 30.24 in 10.0 mi East 18.4 mph 23.0 mph N/A   Clear
1:58 PM 73.6 °F 58.3 °F 59% 30.21 in 10.0 mi ENE 17.3 mph - N/A   Partly Cloudy
2:58 PM 73.2 °F 57.6 °F 58% 30.21 in 10.0 mi East 16.1 mph - N/A   Scattered Clouds
3:58 PM 74.5 °F 59.9 °F 60% 30.20 in 10.0 mi ENE 12.7 mph - N/A   Clear
4:58 PM 73.4 °F 59.0 °F 61% 30.19 in 10.0 mi ENE 12.7 mph - N/A   Clear
5:58 PM 71.6 °F 59.9 °F 66% 30.18 in 10.0 mi East 16.1 mph 19.6 mph N/A   Partly Cloudy
6:58 PM 70.5 °F 58.6 °F 66% 30.18 in 10.0 mi ENE 13.8 mph - N/A   Clear
7:58 PM 68.2 °F 56.7 °F 67% 30.18 in 10.0 mi East 8.1 mph - N/A   Scattered Clouds
8:58 PM 69.3 °F 57.9 °F 67% 30.18 in 10.0 mi ESE 12.7 mph - N/A   Mostly Cloudy
9:58 PM 68.5 °F 55.6 °F 63% 30.18 in 10.0 mi East 6.9 mph - N/A   Partly Cloudy
10:58 PM 68.0 °F 58.8 °F 72% 30.19 in 10.0 mi East 4.6 mph - N/A   Partly Cloudy
11:58 PM 68.9 °F 57.6 °F 67% 30.19 in 10.0 mi ESE 5.8 mph - N/A   Mostly Cloudy